GW4151 Weather Reports


time (UTC)temp
F
wind
direction
speed
knots
gust
knots
rain 1hr
in
rain 24hr
in
rain mn
in
humidity
%
barometer
mb
20260903191958 75 197 0.0 0.9 0.00 0.24 0.24 93 994.7
20260903190454 74 283 1.7 1.7 0.05 0.24 0.24 94 994.3
20260903184949 73 256 1.7 2.6 0.12 0.23 0.23 94 995.5
20260903183447 73 275 2.6 3.5 0.19 0.20 0.20 93 995.8
20260903181948 74 312 2.6 5.2 0.05 0.17 0.17 90 996.1
20260903180442 77 27 1.7 7.0 0.00 0.16 0.16 83 996.5
20260903174941 79 336 2.6 8.7 0.00 0.16 0.16 79 996.0
20260903173437 79 305 3.5 7.8 0.00 0.16 0.16 83 995.5
20260903171935 80 210 1.7 5.2 0.00 0.16 0.16 84 994.7
20260903170430 80 320 5.2 7.0 0.00 0.16 0.16 85 994.5
20260903164930 81 268 6.1 7.8 0.00 0.16 0.16 84 993.8
20260903163427 82 268 2.6 6.1 0.00 0.16 0.16 82 993.1
20260903161926 83 217 5.2 7.0 0.00 0.16 0.16 80 992.8
20260903160422 83 156 3.5 7.0 0.00 0.16 0.16 79 993.1
20260903154918 83 156 1.7 7.0 0.00 0.16 0.16 81 993.1
20260903153415 83 202 5.2 7.0 0.00 0.16 0.16 80 993.5
20260903151914 84 232 3.5 5.2 0.00 0.16 0.16 79 993.5
20260903150410 84 200 1.7 2.6 0.00 0.16 0.16 81 993.9
20260903144905 84 185 1.7 2.6 0.00 0.16 0.16 82 993.6
20260903143405 84 250 0.9 2.6 0.00 0.16 0.16 81 993.6
20260903141902 84 194 1.7 3.5 0.00 0.16 0.16 83 993.5
20260903140400 85 178 3.5 5.2 0.00 0.16 0.16 80 993.3
20260903134855 83 180 0.9 3.5 0.00 0.16 0.16 84 993.3
20260903133351 80 225 2.6 2.6 0.00 0.16 0.16 90 993.5
20260903131847 77 196 0.0 2.6 0.00 0.16 0.16 97 993.4
20260903130346 76 182 0.9 1.7 0.00 0.16 0.16 99 993.5
20260903124845 75 182 0.0 0.9 0.00 0.16 0.16 99 993.4
20260903123340 75 162 0.0 0.0 0.00 0.16 0.16 99 993.5
20260903121839 74 190 0.9 1.7 0.00 0.16 0.16 99 993.7
20260903120334 74 189 0.0 0.9 0.00 0.16 0.16 99 993.8
20260903114833 74 192 0.0 1.7 0.00 0.16 0.16 99 993.7
20260903113332 74 191 1.7 1.7 0.00 0.16 0.16 99 993.7
20260903111828 74 155 0.0 0.9 0.73 0.16 0.16 99 993.7
20260903110326 72 164 0.0 0.0 0.00 0.00 0.00 99 993.6
20260903104826 71 164 0.0 0.0 0.00 0.00 0.00 99 993.7
20260903103325 72 167 0.0 0.0 0.00 0.00 0.00 99 993.5
20260903101820 71 165 0.0 0.0 0.00 0.00 0.00 99 993.4
20260903100317 72 167 0.0 0.0 0.00 0.00 0.00 99 993.6
20260903094816 72 168 0.0 0.0 0.00 0.00 0.00 99 993.6
20260903093313 72 178 0.0 0.0 0.00 0.00 0.00 99 993.5
20260903091813 71 169 0.0 0.0 0.00 0.00 0.00 99 993.6
20260903090308 72 170 0.0 0.0 0.00 0.00 0.00 99 993.7
20260903084805 72 172 0.0 0.0 0.00 0.00 0.00 99 993.5
20260903083301 72 173 0.0 0.0 0.00 0.00 0.00 99 993.3
20260903081756 72 179 0.0 0.0 0.00 0.00 0.00 99 993.5
20260903080251 72 181 0.0 0.0 0.00 0.00 0.00 99 993.5
20260903074750 72 183 0.0 0.0 0.00 0.00 0.00 99 993.6
20260903073248 73 165 0.0 0.0 0.00 0.00 0.00 99 993.3
20260903071749 72 170 0.0 0.0 0.00 0.00 0.00 99 993.5
20260903070245 73 170 0.0 0.0 0.00 0.00 0.00 99 993.4
20260903064744 72 170 0.0 0.0 0.00 0.00 0.00 99 993.3
20260903063243 73 180 0.0 0.0 0.00 0.00 0.00 99 993.4
20260903061740 73 174 0.0 0.0 0.00 0.00 0.00 99 993.2
20260903060235 73 234 0.0 0.0 0.00 0.00 0.00 99 993.4
20260903054732 73 172 0.0 0.0 0.00 0.00 0.00 99 993.3
20260903053230 73 172 0.0 0.0 0.00 0.00 0.00 99 993.2
20260903051728 73 172 0.0 0.0 0.00 0.00 0.00 99 993.1
20260903050224 74 171 0.0 0.0 0.00 0.00 0.00 98 993.2
20260903044723 73 196 0.0 0.0 0.00 0.00 0.00 98 993.0
20260903043220 74 92 0.0 0.0 0.00 0.00 0.00 98 992.9
20260903041717 74 92 0.0 0.0 0.00 0.00 0.00 98 993.0
20260903040213 74 92 0.0 0.0 0.00 0.00 0.00 98 992.9
20260903034710 75 92 0.0 0.0 0.00 0.00 0.00 97 992.9
20260903033207 75 92 0.0 0.0 0.00 0.00 0.00 97 992.8
20260903031705 75 92 0.0 0.0 0.00 0.00 0.00 97 993.2
20260903030202 76 327 0.9 1.7 0.00 0.00 0.00 94 993.0
20260903024700 76 167 0.0 0.9 0.00 0.00 0.00 93 993.0
20260903023155 77 166 0.0 0.9 0.00 0.00 0.00 91 992.9
20260903021655 77 186 0.0 0.9 0.00 0.00 0.00 91 993.0
20260903020150 78 162 0.0 0.9 0.00 0.00 0.00 90 992.5
20260903014648 79 235 0.9 0.9 0.00 0.00 0.00 87 993.0
20260903013148 79 199 0.0 0.0 0.00 0.00 0.00 85 992.8
20260903011646 79 239 0.9 0.9 0.00 0.00 0.00 85 992.6
20260903010146 81 308 1.7 1.7 0.00 0.00 0.00 83 992.3
20260903004642 80 196 0.0 0.0 0.00 0.00 0.00 83 992.2
20260903003140 81 240 0.9 0.9 0.00 0.00 0.00 82 992.3
20260903001636 82 190 1.7 3.5 0.00 0.00 0.00 79 992.1
20260903000131 82 251 2.6 3.5 0.00 0.00 0.00 79 992.3
20260902234631 83 223 3.5 3.5 0.00 0.00 0.00 78 992.1
20260902233131 84 194 1.7 6.1 0.00 0.00 0.00 77 992.4
20260902231630 84 241 1.7 3.5 0.00 0.00 0.00 76 992.3
20260902230130 84 290 3.5 7.0 0.00 0.00 0.00 75 992.4
20260902224629 85 224 1.7 5.2 0.00 0.00 0.00 73 992.5
20260902223126 87 266 3.5 7.0 0.00 0.00 0.00 71 992.4
20260902221624 86 233 2.6 7.0 0.00 0.00 0.00 70 992.6
20260902220121 88 287 1.7 5.2 0.00 0.00 0.00 68 992.5
20260902214619 88 223 2.6 7.8 0.00 0.00 0.00 65 992.5
20260902213118 89 211 5.2 7.8 0.00 0.00 0.00 63 992.2
20260902211618 89 173 5.2 7.8 0.00 0.00 0.00 64 992.5
20260902210114 89 219 3.5 5.2 0.00 0.00 0.00 64 992.5
20260902204614 90 247 2.6 7.0 0.00 0.00 0.00 61 992.7
20260902203110 89 268 6.1 7.8 0.00 0.00 0.00 61 992.6
20260902201609 90 237 3.5 9.6 0.00 0.00 0.00 60 992.9
20260902200106 93 215 2.6 6.1 0.00 0.00 0.00 57 992.6
20260902194605 93 259 4.3 7.8 0.00 0.00 0.00 57 992.5